Franklin, PA

8:11 PM EST on November 22, 2019 (GMT -0500)
Venango Regional

Weather History for KFKL - September, 2019

Change the Weather History Date:

Friday, September 27, 2019

  Actual Average Record
Temperature  
Mean Temperature 60 °F -  
Max Temperature 75 °F 69 °F 90 °F (1934)
Min Temperature 45 °F 47 °F 27 °F (1957)
Degree Days  
Heating Degree Days 5    
Growing Degree Days 10 (Base 50)    
Moisture  
Dew Point 47 °F    
Average Humidity 65    
Maximum Humidity 97    
Minimum Humidity 38    
Precipitation  
Precipitation 0.00 in - - ()
Sea Level Pressure  
Sea Level Pressure 30.04 in    
Wind  
Wind Speed 5 mph (South)    
Max Wind Speed 14 mph    
Max Gust Speed 20 mph    
Visibility 10 miles    
Events      
Averages and records for this station are not official NWS values.
T = Trace of Precipitation, MM = Missing Value Source: NWS Daily Summary

Daily Weather History Graph

Daily Weather History Graph

Search for Another Location

Airport or City:

Astronomy

Sep. 27, 2019 Rise Set
Actual Time 7:11 AM EDT 7:08 PM EDT
Civil Twilight 6:44 AM EDT 7:35 PM EDT
Nautical Twilight 6:12 AM EDT 8:08 PM EDT
Astronomical Twilight 5:39 AM EDT 8:40 PM EDT
Moon 5:29 AM EDT (9/27) 6:59 PM EDT (9/27)
Length of Visible Light 12h 51m
Length of Day
11h 56m
Waning Crescent, 2% of the Moon is Illuminated
Sep 27
Waning Crescent
Sep 28
New
Oct 5
First Quarter
Oct 13
Full
Oct 21
Last Quarter

Hourly Weather History & Observations

Time (EDT) Temp. Windchill Dew Point Humidity Pressure Visibility Wind Dir Wind Speed Gust Speed Precip Events Conditions
12:56 AM 46.9 °F - 45.0 °F 93% 30.04 in 10.0 mi Calm Calm - N/A   Clear
1:56 AM 46.0 °F - 45.0 °F 96% 30.04 in 10.0 mi Calm Calm - N/A   Clear
2:56 AM 45.0 °F 42.6 °F 44.1 °F 97% 30.04 in 10.0 mi South 4.6 mph - N/A   Clear
3:56 AM 45.0 °F 41.8 °F 44.1 °F 97% 30.05 in 10.0 mi SSW 5.8 mph - N/A   Clear
4:56 AM 46.0 °F 43.1 °F 44.1 °F 93% 30.06 in 10.0 mi SSW 5.8 mph - N/A   Clear
5:56 AM 46.0 °F - 44.1 °F 93% 30.08 in 10.0 mi Calm Calm - N/A   Clear
6:56 AM 45.0 °F - 43.0 °F 93% 30.10 in 10.0 mi Calm Calm - N/A   Clear
7:56 AM 46.0 °F - 44.1 °F 93% 30.12 in 10.0 mi Calm Calm - N/A   Clear
8:56 AM 54.0 °F - 48.0 °F 80% 30.12 in 10.0 mi SE 5.8 mph - N/A   Clear
9:56 AM 59.0 °F - 48.0 °F 67% 30.12 in 10.0 mi South 6.9 mph - N/A   Clear
10:56 AM 63.0 °F - 48.0 °F 58% 30.12 in 10.0 mi South 9.2 mph - N/A   Clear
11:56 AM 66.9 °F - 46.9 °F 49% 30.09 in 10.0 mi South 10.4 mph 16.1 mph N/A   Clear
12:56 PM 69.1 °F - 48.0 °F 47% 30.06 in 10.0 mi SSE 13.8 mph 19.6 mph N/A   Clear
1:56 PM 72.0 °F - 48.0 °F 43% 30.04 in 10.0 mi South 12.7 mph 18.4 mph N/A   Clear
2:56 PM 75.0 °F - 48.0 °F 38% 30.02 in 10.0 mi SE 11.5 mph - N/A   Clear
3:56 PM 75.0 °F - 48.0 °F 38% 30.00 in 10.0 mi South 11.5 mph - N/A   Clear
4:56 PM 73.9 °F - 46.9 °F 38% 30.00 in 10.0 mi SSE 10.4 mph - N/A   Clear
5:56 PM 73.9 °F - 48.0 °F 40% 29.98 in 10.0 mi South 11.5 mph - N/A   Clear
6:56 PM 70.0 °F - 48.0 °F 46% 30.00 in 10.0 mi South 4.6 mph - N/A   Clear
7:56 PM 69.1 °F - 48.9 °F 49% 30.01 in 10.0 mi South 6.9 mph - N/A   Partly Cloudy
8:56 PM 69.1 °F - 48.9 °F 49% 30.00 in 10.0 mi South 11.5 mph - N/A   Clear
9:56 PM 66.9 °F - 48.9 °F 52% 29.99 in 10.0 mi SSE 10.4 mph - N/A   Partly Cloudy
10:56 PM 66.0 °F - 50.0 °F 56% 29.97 in 10.0 mi SSE 9.2 mph - N/A   Clear
11:56 PM 64.9 °F - 53.1 °F 65% 29.96 in 10.0 mi SSE 11.5 mph - N/A   Clear